Theta_e
307 309 310 310 311 312 310 309 309 308 308 309 309 308 308 309 309 316 318 310 312 309 314 320 319 315 313 312 314 317 318 320 320 321 322 323 323 325 326 325 325 324 324 341 348
309 309 312 312 311 310 309 308 308 308 308 309 309 309 309 309 315 319 312 308 309 309 316 317 316 315 316 314 313 314 317 318 319 320 320 321 322 323 324 324 323 323 324 330 340
308 310 311 309 309 308 308 308 308 308 309 309 309 309 309 311 321 316 309 309 309 310 316 316 315 314 315 315 315 313 315 316 317 318 319 319 319 320 320 323 323 322 323 324 328
304 308 309 310 307 307 308 308 309 308 308 309 309 309 309 315 321 316 309 309 309 313 316 316 315 315 316 315 316 314 313 313 314 316 316 317 317 318 320 323 324 324 323 323 324
302 306 308 307 307 308 308 308 310 309 309 309 309 310 315 322 319 314 309 312 316 315 314 315 315 316 316 316 316 315 314 315 315 314 314 314 315 316 319 322 323 323 324 323 324
301 302 302 306 307 308 308 308 310 310 310 310 310 310 317 324 314 316 315 315 314 315 315 315 315 316 315 316 316 316 316 316 315 314 314 314 314 314 317 321 322 321 323 324 324
301 301 301 303 307 308 308 309 310 310 310 310 310 313 319 319 314 314 314 314 315 315 316 315 315 316 316 316 316 316 316 316 316 315 315 314 314 313 315 317 320 321 322 323 324
301 301 301 302 307 308 309 309 309 311 310 310 310 316 319 316 314 314 315 314 315 316 316 316 315 315 315 316 316 316 316 315 315 315 315 314 313 314 314 315 316 317 319 322 324
301 302 302 303 308 308 308 309 310 313 312 312 316 320 320 315 315 316 314 314 314 315 317 316 316 316 316 316 317 317 318 317 316 316 315 314 313 314 315 316 317 317 318 319 322
301 302 303 305 308 309 309 308 312 314 317 318 318 318 318 318 316 315 314 314 315 315 317 317 318 318 318 318 319 318 318 318 318 318 316 315 314 314 315 315 316 317 318 318 320
302 303 308 308 309 309 309 315 315 321 319 315 315 317 315 314 315 315 314 316 316 316 318 318 319 321 320 319 318 319 320 319 319 318 317 316 316 316 316 315 315 317 318 319 319
302 305 309 309 309 309 309 318 313 313 315 317 316 315 315 315 315 316 316 316 317 318 318 319 320 319 318 318 319 320 320 320 318 318 318 318 319 316 316 316 315 317 318 320 320
303 307 309 309 310 310 315 315 313 314 317 319 314 315 315 314 315 317 316 316 316 317 317 318 318 317 318 318 320 320 320 320 319 319 319 318 320 320 316 318 318 316 318 320 321
304 307 309 309 312 315 313 312 314 315 323 316 314 316 316 316 317 317 316 316 316 317 317 318 318 318 318 319 318 319 318 319 321 320 320 320 324 320 319 319 319 319 317 318 320
305 306 308 311 314 316 310 313 315 318 331 315 315 315 316 317 317 318 317 317 317 317 317 318 318 318 318 318 318 320 319 320 322 322 323 324 321 321 319 321 321 320 318 318 319
306 305 307 313 314 313 311 315 319 328 321 315 315 314 315 317 317 317 317 317 318 318 319 319 318 318 318 318 318 318 318 319 322 323 329 321 321 322 320 321 319 321 319 318 318
309 306 307 311 312 310 312 318 324 325 315 314 314 314 316 317 316 317 318 318 321 325 324 322 320 319 319 321 320 322 323 330 330 330 327 319 320 321 320 320 320 320 319 319 318
311 311 311 314 310 310 314 321 325 316 316 314 313 314 316 315 316 316 318 318 319 320 325 325 325 319 319 319 323 324 325 325 326 329 324 319 327 323 321 321 321 319 319 321 319
312 316 317 312 310 312 319 321 317 313 313 312 314 315 315 315 315 316 317 319 320 321 325 325 321 317 316 315 315 321 325 321 324 322 327 321 319 322 320 320 319 318 319 320 321
311 317 318 311 312 316 321 316 316 312 311 313 317 315 316 316 317 316 317 316 316 319 318 319 320 316 315 315 316 318 318 327 324 324 323 320 321 318 319 320 320 321 320 320 321
314 319 314 314 314 317 318 316 314 313 313 313 313 315 316 315 315 318 318 316 318 318 317 317 316 318 315 316 317 320 323 323 321 322 325 323 318 318 320 319 319 320 321 319 320
316 320 316 314 319 318 316 315 313 313 313 313 313 315 316 315 319 319 318 317 316 316 318 315 315 320 317 316 316 317 322 321 325 319 321 322 324 318 319 318 317 319 321 320 319
318 320 317 316 318 318 317 316 316 314 313 312 313 314 315 317 320 318 317 316 318 317 316 313 317 321 319 321 322 322 320 322 323 323 328 326 323 318 317 317 317 318 319 321 320
318 322 321 319 320 319 318 317 315 314 312 312 312 313 315 316 315 318 317 317 317 317 317 313 315 317 321 319 319 321 323 321 321 323 325 324 321 318 318 317 317 317 319 321 323
320 321 320 321 320 320 318 317 316 313 312 311 313 314 314 319 318 317 316 317 318 317 315 314 318 317 317 318 320 321 322 321 322 322 328 324 320 318 317 320 319 318 320 322 338
319 319 317 319 319 321 321 318 315 314 312 311 312 314 316 318 319 319 317 320 321 315 314 315 319 316 318 318 322 327 319 316 317 317 317 321 324 320 319 320 321 320 321 325 337
316 315 317 318 320 321 322 317 315 313 312 312 313 315 316 317 316 316 319 321 319 317 316 316 317 319 321 320 323 324 313 313 313 312 313 317 317 314 316 319 321 322 324 329 338
Wind_Speed
22 22 22 22 21 21 20 19 18 17 16 16 16 17 18 21 21 16 6 4 1 2 10 14 16 11 12 15 18 18 16 19 27 27 25 24 25 23 25 16 14 16 20 9 17
23 22 22 22 21 20 18 16 15 15 14 15 15 16 17 17 18 12 4 3 2 5 11 15 11 14 9 13 14 18 17 26 23 24 24 25 26 28 26 14 11 14 21 12 21
24 23 23 22 20 17 15 14 15 16 15 16 16 15 15 13 10 6 3 4 5 8 13 16 14 13 15 14 16 18 20 22 24 24 25 27 28 29 26 25 13 16 22 23 15
25 23 22 22 17 14 14 15 17 18 16 16 15 14 12 7 3 9 2 4 7 8 11 12 10 13 14 15 14 18 18 20 23 22 23 25 26 28 26 24 17 13 17 21 19
26 25 22 20 15 12 14 16 17 16 16 14 12 10 8 8 1 6 2 1 7 9 11 10 11 11 14 15 16 16 16 16 15 17 20 21 24 26 27 26 20 20 21 15 16
27 26 25 20 15 13 14 15 16 14 13 10 10 5 6 11 5 7 2 6 9 9 13 10 12 13 10 14 15 17 19 19 19 15 16 19 23 23 27 24 21 22 24 19 20
28 26 26 20 14 13 14 15 16 13 11 11 10 4 10 10 1 2 7 9 11 12 11 15 13 10 14 17 16 15 17 17 19 17 19 19 22 25 25 26 24 24 23 22 21
31 28 26 20 14 13 15 16 16 12 11 10 5 6 7 3 2 9 9 11 12 13 13 15 16 15 14 16 18 20 20 18 18 21 23 21 24 22 22 24 27 28 26 24 20
35 31 26 18 12 14 16 17 15 11 10 5 4 8 11 2 10 9 9 15 9 15 12 11 11 14 15 16 16 18 19 22 23 22 17 17 26 22 20 22 24 27 25 25 20
39 32 24 15 11 15 17 18 16 11 8 9 14 8 11 10 8 11 17 24 15 9 14 15 13 14 15 14 15 19 17 20 19 18 10 17 20 19 21 21 21 24 25 27 25
40 30 19 11 10 13 16 8 3 4 11 15 11 14 17 13 8 13 19 7 12 10 15 17 15 15 21 18 21 21 23 25 24 24 20 18 19 20 23 18 20 20 24 26 28
39 25 15 12 14 12 12 7 12 12 13 15 9 9 11 12 10 16 14 7 11 14 18 16 20 22 23 22 22 23 25 26 26 23 23 21 28 22 17 21 20 23 22 19 24
36 18 14 14 14 12 13 11 14 13 7 7 3 6 5 8 15 21 2 10 16 18 20 21 24 23 22 21 20 22 24 24 25 24 27 24 27 25 22 22 24 20 23 22 21
36 15 12 14 10 14 14 17 15 8 5 4 6 2 7 13 16 7 4 9 16 21 21 21 21 23 23 24 21 25 22 21 24 22 18 18 19 21 23 20 21 26 22 23 23
38 13 10 10 13 11 17 15 11 3 3 8 5 2 11 16 13 13 16 9 14 19 19 25 25 26 27 27 24 26 23 16 17 20 17 25 13 23 17 24 25 20 22 23 24
35 12 11 9 9 15 18 13 6 5 4 9 16 21 20 19 13 19 17 15 18 19 20 26 26 24 24 27 26 25 24 21 15 13 15 20 16 23 21 25 21 26 23 27 25
36 13 9 10 10 20 15 11 6 5 19 14 24 24 21 18 18 20 22 21 16 15 16 21 22 25 11 21 25 14 14 4 9 9 16 13 17 20 23 23 30 20 22 28 27
35 10 9 11 18 15 12 9 11 19 17 20 21 24 18 24 22 21 26 22 16 11 8 11 11 10 9 10 5 7 8 6 6 4 8 18 7 13 22 25 23 19 25 22 29
33 8 8 6 15 10 7 5 8 13 15 19 23 15 19 23 20 24 24 15 9 13 6 7 7 26 29 18 15 4 7 3 6 11 14 18 23 14 22 18 19 19 8 22 23
25 12 3 14 12 9 9 3 8 12 15 16 16 16 24 22 20 19 15 13 23 8 6 4 14 16 21 18 18 14 9 5 4 6 16 13 17 12 12 9 13 18 15 19 12
6 6 6 18 13 9 7 12 16 14 13 11 21 21 20 18 21 20 10 17 7 12 12 10 7 13 17 9 16 4 5 8 8 8 7 13 10 6 7 8 2 19 20 16 15
11 7 11 18 5 7 10 18 17 10 12 14 15 16 18 23 15 19 10 18 11 3 6 5 4 8 20 27 22 18 15 15 6 9 12 13 13 12 7 8 5 16 18 14 17
8 11 8 17 7 8 14 16 14 15 13 15 12 18 22 19 15 10 21 20 17 6 4 5 4 7 12 0 6 6 11 16 10 8 18 13 11 7 4 9 11 13 16 18 18
5 8 9 10 12 16 17 16 18 16 14 14 18 20 20 22 22 23 26 8 13 5 11 7 4 9 14 22 20 20 14 16 18 10 18 18 21 20 18 12 16 13 17 19 18
4 8 9 9 12 17 16 19 18 19 18 18 14 19 23 21 24 24 28 28 19 8 3 3 7 15 22 24 25 26 25 23 21 21 18 18 21 15 14 11 15 14 17 15 14
6 8 8 14 17 20 16 16 21 21 21 17 18 22 21 21 23 29 30 25 12 4 3 3 5 16 24 25 17 19 4 10 10 16 14 17 21 11 13 13 22 20 13 15 16
16 14 7 10 13 14 15 19 21 22 12 20 20 21 22 23 26 28 25 24 7 5 3 2 4 5 9 19 24 2 7 11 11 15 9 10 17 16 18 20 21 15 13 9 20
Wind_Direction
347 343 340 337 334 333 331 331 333 333 331 329 327 325 326 326 322 305 255 13 17 324 303 292 270 245 249 252 264 246 251 252 253 257 268 277 276 277 281 264 208 253 265 104 108
347 344 340 338 335 333 334 339 340 337 336 330 325 325 325 327 312 282 79 66 328 320 323 331 320 320 279 250 244 245 244 252 258 269 281 285 283 287 280 258 214 249 266 225 144
350 346 342 340 337 336 342 346 340 331 324 321 320 321 322 337 288 100 99 317 318 318 299 297 289 277 276 270 251 240 251 265 267 280 288 297 301 302 300 283 196 228 245 262 183
352 347 341 337 338 340 341 344 338 331 326 323 318 321 321 309 359 118 354 297 307 314 297 285 280 277 274 274 263 245 257 267 275 277 283 286 296 294 291 278 307 257 231 257 252
354 348 339 336 336 333 334 337 339 334 328 323 321 326 334 241 242 138 209 261 301 276 288 298 299 287 283 285 285 275 276 281 283 282 280 278 272 278 284 291 306 312 302 284 269
353 349 343 335 329 325 329 332 334 331 326 325 317 321 270 270 75 153 191 261 274 285 290 296 302 324 310 279 281 291 297 290 291 287 280 277 279 269 271 284 289 295 294 287 286
352 346 342 330 321 318 321 326 329 326 315 321 310 269 273 273 310 282 255 265 284 293 292 292 294 289 299 299 286 292 281 278 265 261 260 263 264 264 269 264 272 272 277 275 275
351 345 339 328 313 308 311 318 322 322 306 302 289 241 274 174 273 275 268 282 280 251 259 282 292 291 280 283 284 278 272 271 268 253 244 232 258 253 251 261 261 261 270 271 255
352 345 339 328 309 310 303 305 310 311 306 289 244 222 280 131 247 243 290 294 294 299 254 258 280 277 284 276 269 255 253 252 257 245 245 243 241 242 246 242 243 245 252 263 262
353 346 341 332 316 319 306 300 287 283 270 248 259 264 248 257 322 305 285 273 302 291 277 239 238 246 247 245 257 272 283 286 284 292 293 258 258 253 251 256 249 239 235 236 253
353 348 344 336 326 319 310 291 284 191 241 287 273 250 292 281 289 289 283 304 293 256 262 261 235 240 256 265 277 274 273 277 281 288 278 260 256 267 276 242 258 243 235 236 226
353 349 347 335 318 303 298 298 7 312 308 286 258 273 262 260 283 280 310 305 271 257 262 262 251 256 261 249 260 276 279 276 278 280 278 272 281 257 256 283 248 272 246 254 215
353 346 339 330 321 285 244 7 333 320 285 268 243 287 327 315 275 293 312 282 279 281 285 278 282 291 283 268 255 253 259 271 277 282 279 278 264 263 253 256 258 242 265 265 228
355 340 336 327 312 317 2 337 335 348 274 139 171 91 288 282 290 269 302 286 295 283 287 282 293 284 273 271 272 276 267 273 295 269 265 266 273 264 271 263 244 248 241 255 267
353 333 328 322 307 332 340 338 338 249 269 12 337 286 273 305 297 341 328 233 264 279 286 280 284 280 275 274 280 277 290 274 283 272 277 257 265 271 247 250 252 255 225 242 252
353 331 328 342 269 308 331 329 280 243 337 343 359 336 331 302 350 349 333 312 294 290 285 285 275 268 265 260 256 267 264 264 256 269 260 255 248 263 256 256 249 242 219 222 232
350 326 286 303 316 330 328 296 265 269 357 6 337 337 312 307 345 346 338 328 296 292 281 296 297 286 300 297 252 337 283 267 231 216 248 270 249 246 260 251 249 228 240 212 211
348 307 272 254 320 323 311 280 277 353 339 340 335 317 315 355 348 340 341 326 342 331 303 280 303 1 1 21 348 304 268 226 283 248 293 287 259 282 265 245 261 251 227 214 200
344 316 263 349 328 321 291 332 346 331 335 335 329 321 341 326 350 348 339 324 347 26 336 313 273 327 306 300 277 248 236 300 285 276 272 261 266 238 271 270 250 252 242 257 198
331 293 291 340 329 307 288 280 319 353 340 338 326 326 319 343 340 338 328 313 331 70 12 285 289 285 291 292 270 246 255 216 196 258 264 256 273 256 231 210 343 321 215 252 257
294 294 50 349 312 279 309 356 335 345 346 325 321 317 318 326 329 320 304 302 335 329 330 302 225 281 302 247 263 228 218 211 252 244 269 286 287 23 349 32 310 298 310 222 243
309 330 14 348 332 1 352 332 315 310 310 321 316 313 318 317 322 318 280 297 328 261 266 261 277 277 286 281 271 272 232 231 227 247 240 256 271 279 300 301 301 288 289 284 229
311 306 31 345 350 327 336 329 325 324 321 331 315 312 305 313 308 279 287 302 297 322 241 195 236 299 297 296 45 273 240 230 243 258 257 261 261 303 231 288 269 267 284 279 230
290 321 346 323 356 341 334 316 319 334 339 327 313 314 313 326 314 302 316 304 298 198 269 161 235 231 266 282 303 291 264 262 243 252 263 248 268 265 267 273 267 245 263 269 281
314 352 8 318 323 315 298 307 322 332 330 324 325 320 319 310 307 321 315 316 330 94 124 236 262 274 274 270 271 273 279 273 257 246 254 272 255 256 281 324 293 257 257 286 127
348 337 326 302 322 308 315 346 327 323 324 325 321 313 309 314 333 321 315 305 311 157 261 223 273 296 290 285 272 265 24 1 348 318 306 300 285 326 344 308 287 262 274 273 162
348 333 297 291 329 323 329 321 322 329 325 317 308 312 324 337 323 305 287 278 255 163 238 241 291 297 281 310 308 89 50 5 310 294 288 272 294 320 290 262 254 251 246 223 148